TimeCST,TemperatureF,Dew PointF,Humidity,Sea Level PressureIn,VisibilityMPH,Wind Direction,Wind SpeedMPH,Gust SpeedMPH,PrecipitationIn,Events,Conditions,WindDirDegrees,DateUTC
12:15 AM,35.6,32.0,87,30.29,7.0,Calm,Calm,-,N/A,,Clear,0,2013-01-06 06:15:00
12:35 AM,33.8,32.0,93,30.29,7.0,Calm,Calm,-,N/A,,Clear,0,2013-01-06 06:35:00
12:55 AM,35.6,33.8,93,30.30,7.0,Calm,Calm,-,N/A,,Clear,0,2013-01-06 06:55:00
1:15 AM,37.4,33.8,87,30.30,5.0,Calm,Calm,-,N/A,,Clear,0,2013-01-06 07:15:00
1:35 AM,37.4,35.6,93,30.30,5.0,Calm,Calm,-,N/A,,Clear,0,2013-01-06 07:35:00
1:55 AM,35.6,33.8,93,30.30,4.0,Calm,Calm,-,N/A,,Clear,0,2013-01-06 07:55:00
2:15 AM,37.4,35.6,93,30.30,4.0,Calm,Calm,-,N/A,,Clear,0,2013-01-06 08:15:00
2:35 AM,37.4,35.6,93,30.29,3.0,Calm,Calm,-,N/A,,Clear,0,2013-01-06 08:35:00
2:55 AM,32.0,30.2,93,30.30,2.0,Calm,Calm,-,N/A,,Clear,0,2013-01-06 08:55:00
3:15 AM,32.0,30.2,93,30.30,2.5,Calm,Calm,-,N/A,,Clear,0,2013-01-06 09:15:00
3:35 AM,30.2,28.4,93,30.30,0.2,Calm,Calm,-,N/A,Fog,Light Freezing Fog,0,2013-01-06 09:35:00
3:55 AM,30.2,28.4,93,30.30,0.2,Calm,Calm,-,N/A,Fog,Light Freezing Fog,0,2013-01-06 09:55:00
4:15 AM,30.2,30.2,100,30.30,0.2,NNW,6.9,-,N/A,Fog,Light Freezing Fog,330,2013-01-06 10:15:00
4:35 AM,32.0,32.0,100,30.30,0.8,NNW,5.8,-,N/A,,Mist,340,2013-01-06 10:35:00
4:55 AM,32.0,30.2,93,30.30,3.0,NNW,5.8,-,N/A,,Clear,340,2013-01-06 10:55:00
5:15 AM,32.0,32.0,100,30.30,10.0,NNW,9.2,-,N/A,,Clear,340,2013-01-06 11:15:00
5:35 AM,32.0,32.0,100,30.31,10.0,North,10.4,-,N/A,,Clear,350,2013-01-06 11:35:00
5:55 AM,32.0,32.0,100,30.31,10.0,NNW,10.4,-,N/A,,Clear,340,2013-01-06 11:55:00
6:15 AM,32.0,32.0,100,30.32,10.0,NNW,9.2,-,N/A,,Clear,340,2013-01-06 12:15:00
6:35 AM,32.0,32.0,100,30.33,10.0,NNW,12.7,-,N/A,,Clear,330,2013-01-06 12:35:00
6:55 AM,32.0,32.0,100,30.33,10.0,NNW,11.5,-,N/A,,Clear,330,2013-01-06 12:55:00
7:15 AM,32.0,30.2,93,30.34,10.0,NNW,11.5,-,N/A,,Clear,330,2013-01-06 13:15:00
7:35 AM,32.0,30.2,93,30.35,10.0,NNW,10.4,-,N/A,,Clear,330,2013-01-06 13:35:00
7:55 AM,32.0,30.2,93,30.36,10.0,NNW,12.7,-,N/A,,Clear,330,2013-01-06 13:55:00
8:15 AM,33.8,30.2,87,30.36,10.0,NNW,10.4,-,N/A,,Clear,330,2013-01-06 14:15:00
8:35 AM,33.8,32.0,93,30.38,10.0,NNW,11.5,-,N/A,,Clear,330,2013-01-06 14:35:00
8:55 AM,35.6,32.0,87,30.38,10.0,NNW,9.2,-,N/A,,Clear,330,2013-01-06 14:55:00
9:15 AM,37.4,32.0,81,30.39,10.0,NNW,11.5,-,N/A,,Clear,340,2013-01-06 15:15:00
9:35 AM,39.2,32.0,75,30.39,10.0,NNW,10.4,-,N/A,,Clear,330,2013-01-06 15:35:00
9:55 AM,42.8,32.0,66,30.40,10.0,North,11.5,-,N/A,,Clear,350,2013-01-06 15:55:00
10:15 AM,42.8,32.0,66,30.40,10.0,NNW,11.5,-,N/A,,Clear,340,2013-01-06 16:15:00
10:35 AM,44.6,30.2,57,30.40,10.0,North,12.7,-,N/A,,Clear,350,2013-01-06 16:35:00
10:55 AM,46.4,30.2,53,30.40,10.0,North,8.1,16.1,N/A,,Clear,10,2013-01-06 16:55:00
11:15 AM,46.4,30.2,53,30.40,10.0,North,10.4,17.3,N/A,,Clear,360,2013-01-06 17:15:00
11:35 AM,50.0,32.0,50,30.40,10.0,North,9.2,-,N/A,,Clear,10,2013-01-06 17:35:00
11:55 AM,50.0,32.0,50,30.39,10.0,North,9.2,-,N/A,,Clear,10,2013-01-06 17:55:00
12:15 PM,51.8,32.0,47,30.38,10.0,North,11.5,-,N/A,,Clear,360,2013-01-06 18:15:00
12:35 PM,53.6,30.2,41,30.37,10.0,North,8.1,18.4,N/A,,Clear,10,2013-01-06 18:35:00
12:55 PM,53.6,28.4,38,30.36,10.0,North,8.1,19.6,N/A,,Clear,350,2013-01-06 18:55:00
1:15 PM,53.6,28.4,38,30.35,10.0,North,10.4,16.1,N/A,,Clear,360,2013-01-06 19:15:00
1:35 PM,55.4,26.6,33,30.34,10.0,North,15.0,-,N/A,,Clear,360,2013-01-06 19:35:00
1:55 PM,55.4,26.6,33,30.33,10.0,North,9.2,18.4,N/A,,Clear,360,2013-01-06 19:55:00
2:15 PM,57.2,26.6,31,30.33,10.0,NNE,10.4,-,N/A,,Clear,20,2013-01-06 20:15:00
2:35 PM,57.2,26.6,31,30.33,10.0,NNW,12.7,16.1,N/A,,Clear,340,2013-01-06 20:35:00
2:55 PM,57.2,24.8,29,30.33,10.0,North,9.2,18.4,N/A,,Clear,350,2013-01-06 20:55:00
3:15 PM,57.2,23.0,27,30.32,10.0,North,13.8,18.4,N/A,,Clear,350,2013-01-06 21:15:00
3:35 PM,57.2,23.0,27,30.32,10.0,North,16.1,-,N/A,,Clear,350,2013-01-06 21:35:00
3:55 PM,57.2,23.0,27,30.32,10.0,North,11.5,-,N/A,,Clear,10,2013-01-06 21:55:00
4:35 PM,55.4,23.0,29,30.31,10.0,North,10.4,-,N/A,,Clear,360,2013-01-06 22:35:00
4:55 PM,55.4,23.0,29,30.31,10.0,NNE,8.1,-,N/A,,Clear,20,2013-01-06 22:55:00
5:15 PM,53.6,23.0,30,30.32,10.0,North,9.2,-,N/A,,Clear,360,2013-01-06 23:15:00
5:35 PM,50.0,23.0,35,30.32,10.0,North,6.9,-,N/A,,Clear,360,2013-01-06 23:35:00
5:55 PM,46.4,23.0,40,30.32,10.0,North,6.9,-,N/A,,Clear,360,2013-01-06 23:55:00
6:15 PM,46.4,23.0,40,30.32,10.0,NNE,6.9,-,N/A,,Clear,20,2013-01-07 00:15:00
6:35 PM,46.4,24.8,43,30.33,10.0,NNE,6.9,-,N/A,,Clear,20,2013-01-07 00:35:00
6:55 PM,44.6,24.8,46,30.33,10.0,NNE,6.9,-,N/A,,Clear,20,2013-01-07 00:55:00
7:15 PM,44.6,24.8,46,30.35,10.0,NNE,6.9,-,N/A,,Clear,20,2013-01-07 01:15:00
7:35 PM,42.8,26.6,53,30.35,10.0,NNE,6.9,-,N/A,,Clear,30,2013-01-07 01:35:00
7:55 PM,42.8,26.6,53,30.35,10.0,NNE,8.1,-,N/A,,Clear,20,2013-01-07 01:55:00
8:15 PM,42.8,26.6,53,30.35,10.0,NNE,8.1,-,N/A,,Clear,20,2013-01-07 02:15:00
8:35 PM,44.6,26.6,49,30.36,10.0,NNE,9.2,-,N/A,,Clear,30,2013-01-07 02:35:00
9:15 PM,41.0,26.6,57,30.36,10.0,NNE,6.9,-,N/A,,Clear,30,2013-01-07 03:15:00
9:55 PM,41.0,26.6,57,30.36,10.0,NNE,5.8,-,N/A,,Clear,30,2013-01-07 03:55:00
10:15 PM,41.0,26.6,57,30.35,10.0,NE,6.9,-,N/A,,Clear,50,2013-01-07 04:15:00
10:35 PM,42.8,26.6,53,30.35,10.0,ENE,6.9,-,N/A,,Clear,60,2013-01-07 04:35:00
10:55 PM,42.8,26.6,53,30.35,10.0,ENE,5.8,-,N/A,,Clear,60,2013-01-07 04:55:00
11:35 PM,41.0,26.6,57,30.35,10.0,ENE,6.9,-,N/A,,Clear,60,2013-01-07 05:35:00
11:55 PM,41.0,26.6,57,30.34,10.0,NE,8.1,-,N/A,,Clear,50,2013-01-07 05:55:00